Change the Weather History Date:

Sunday, October 10, 2010

  Actual Average Record
Temperature  
Mean Temperature 63 °F 50 °F  
Max Temperature 79 °F 63 °F 87 °F (1928)
Min Temperature 47 °F 38 °F 20 °F (1987)
Degree Days  
Heating Degree Days 2 15  
Month to date heating degree days 96 131  
Since 1 July heating degree days 252 344  
Cooling Degree Days 0 0  
Month to date cooling degree days 7 2  
Year to date cooling degree days 740 612  
Growing Degree Days 14 (Base 50)    
Moisture  
Dew Point 48 °F    
Average Humidity 62    
Maximum Humidity 89    
Minimum Humidity 35    
Precipitation  
Precipitation 0.00 in 0.08 in 1.93 in (1946)
Month to date precipitation 0.01 0.91  
Year to date precipitation 25.85 30.54  
Snow  
Snow 0.00 in 0.00 in 0.20 in (1932)
Month to date snowfall 0.0 0.0  
Since 1 July snowfall 0.0 0.0  
Since 1 September snowfall 0.0 0.0  
Snow Depth 0.00 in    
Sea Level Pressure  
Sea Level Pressure 29.89 in    
Wind  
Wind Speed 3 mph (South)    
Max Wind Speed 10 mph    
Max Gust Speed 14 mph    
Visibility 10 miles    
Events      
T = Trace of Precipitation, MM = Missing Value Source: NWS Daily Summary

Daily Weather History Graph

Daily Weather History Graph

Search for Another Location

Airport or City:

Trip Planner

Search our weather history database for the weather conditions in past years. The results will help you decide how hot, cold, wet, or windy it might be!

Date:

Astronomy

Oct. 10, 2010 Rise Set
Actual Time 7:21 AM CDT 6:38 PM CDT
Civil Twilight 6:52 AM CDT 7:07 PM CDT
Nautical Twilight 6:19 AM CDT 7:40 PM CDT
Astronomical Twilight 5:46 AM CDT 8:13 PM CDT
Moon 11:01 AM CDT (10/10) 8:14 PM CDT (10/10)
Length of Visible Light 12h 14m
Length of Day
11h 17m
Waxing Crescent, 12% of the Moon is Illuminated
Oct 10
Waxing Crescent
Oct 14
First Quarter
Oct 22
Full
Oct 30
Last Quarter
Nov 5
New

Hourly Weather History & Observations

Time (CDT) Temp. Dew Point Humidity Pressure Visibility Wind Dir Wind Speed Gust Speed Precip Events Conditions
12:53 AM 53.1 °F 46.0 °F 77% 29.93 in 10.0 mi South 5.8 mph - N/A   Clear
1:53 AM 54.0 °F 46.0 °F 75% 29.92 in 10.0 mi South 5.8 mph - N/A   Clear
2:53 AM 52.0 °F 45.0 °F 77% 29.91 in 10.0 mi South 4.6 mph - N/A   Clear
3:53 AM 51.1 °F 46.0 °F 83% 29.90 in 10.0 mi Calm Calm - N/A   Clear
4:53 AM 48.9 °F 44.1 °F 83% 29.91 in 10.0 mi Calm Calm - N/A   Clear
5:53 AM 50.0 °F 45.0 °F 83% 29.92 in 10.0 mi Calm Calm - N/A   Clear
6:53 AM 50.0 °F 45.0 °F 83% 29.92 in 10.0 mi ESE 3.5 mph - N/A   Clear
7:53 AM 48.0 °F 44.1 °F 86% 29.92 in 9.0 mi SE 3.5 mph - N/A   Clear
8:53 AM 55.0 °F 48.9 °F 80% 29.92 in 9.0 mi South 4.6 mph - N/A   Clear
9:53 AM 62.1 °F 51.1 °F 67% 29.92 in 10.0 mi South 4.6 mph - N/A   Clear
10:53 AM 69.1 °F 52.0 °F 54% 29.91 in 10.0 mi South 5.8 mph - N/A   Clear
11:53 AM 72.0 °F 52.0 °F 49% 29.91 in 10.0 mi South 9.2 mph - N/A   Clear
12:53 PM 73.9 °F 52.0 °F 46% 29.90 in 10.0 mi South 3.5 mph - N/A   Clear
1:53 PM 78.1 °F 51.1 °F 39% 29.88 in 10.0 mi SW 3.5 mph - N/A   Clear
2:53 PM 78.1 °F 48.9 °F 36% 29.86 in 10.0 mi West 9.2 mph - N/A   Clear
3:53 PM 79.0 °F 48.9 °F 35% 29.85 in 10.0 mi West 6.9 mph - N/A   Clear
4:53 PM 75.9 °F 50.0 °F 40% 29.84 in 10.0 mi SW 5.8 mph - N/A   Clear
5:53 PM 77.0 °F 50.0 °F 39% 29.84 in 10.0 mi Calm Calm - N/A   Clear
6:53 PM 66.9 °F 48.9 °F 52% 29.85 in 9.0 mi Calm Calm - N/A   Clear
7:53 PM 61.0 °F 50.0 °F 67% 29.86 in 7.0 mi Calm Calm - N/A   Clear
8:53 PM 55.9 °F 48.0 °F 75% 29.86 in 8.0 mi Calm Calm - N/A   Clear
9:53 PM 57.0 °F 50.0 °F 77% 29.86 in 9.0 mi Calm Calm - N/A   Clear
10:53 PM 55.9 °F 48.0 °F 75% 29.86 in 9.0 mi Calm Calm - N/A   Clear
11:53 PM 52.0 °F 48.0 °F 86% 29.85 in 9.0 mi Calm Calm - N/A   Clear